AirNav   Air Wisconsin pilot careers
 
 330 users online  

WY11 A Bar A Ranch Airport
Encampment, Wyoming, USA

GOING TO ENCAMPMENT?


FAA INFORMATION EFFECTIVE 16 AUGUST 2018

Location

FAA Identifier: WY11
Lat/Long: 41-09-29.8870N / 106-33-27.1110W
41-09.498117N / 106-33.451850W
41.1583019 / -106.5575308
(estimated)
Elevation: 7880 ft. / 2402 m (estimated)
Variation: 13E (1985)
From city: 11 miles E of ENCAMPMENT, WY
Time zone: UTC -6 (UTC -7 during Standard Time)
Zip code: 82325

Airport Operations

Airport use: Private use. Permission required prior to landing
Activation date: 11/1963
Control tower: no
ARTCC: DENVER CENTER
FSS: CASPER FLIGHT SERVICE STATION
Attendance: UNATNDD
Wind indicator: yes
Segmented circle: no
Landing fee: yes

Airport Communications

UNICOM: 122.8

Nearby radio navigation aids

VOR radial/distance  VOR name  Freq  Var
LARr240/39.2LARAMIE VOR/DME117.6014E

 
NDB name  Hdg/Dist  Freq  Var  ID
SARATOGA132/21.226612ESAA ... .- .-

Airport Services

Airframe service: NONE
Powerplant service: NONE

Runway Information

Runway NW/SE

Dimensions: 5704 x 50 ft. / 1739 x 15 m
Surface: asphalt, in excellent condition
RUNWAY NW  RUNWAY SE
Traffic pattern: leftleft

Airport Ownership and Management from official FAA records

Ownership: Privately-owned
Owner: A BAR A RANCH
PO BOX 247
ENCAMPMENT, WY 82325
Phone 307-327-5454
Manager: JUSTIN HOWE
PO BOX 247
ENCAMPMENT, WY 82325
Phone 307-327-5454

Airport Operational Statistics

Aircraft based on the field: 1
Single engine airplanes: 1
    

Additional Remarks

FREQUENT CROSS WIND.
NUMEROUS HILLS AROUND ARPT. HILL ON S END OF RY FROM 3800 FT TO 4900 FT.
FLY OVER PRIOR TO LANDING RECOMMENDED.
CALL A BAR A RANCH TO ARRANGE PICK-UP AND RY SECURITY 307-327-5454.
ROAD CROSSES MID-FLD.
UNICOM TO A BAR A AVBL FM AIR ONLY.
RANCH HQ 4 MIS E OF RWY.

Instrument Procedures

There are no published instrument procedures at WY11.

Some nearby airports with instrument procedures:

KSAA - Shively Field Airport (21 nm NW)
33V - Walden-Jackson County Airport (28 nm SE)
KLAR - Laramie Regional Airport (41 nm E)
KSBS - Steamboat Springs Airport/Bob Adams Field (41 nm S)
KDWX - Dixon Airport (43 nm W)
 
Loc | Ops | Rwys | IFR | FBO | Links
Com | Nav | Svcs | Stats | Notes


 
Area around WY11 (A Bar A Ranch Airport)
 
Road maps at: MapQuest Bing Google
 
Aerial photo
WARNING: Photo may not be current or correct
Aerial photo of WY11 (A Bar A Ranch Airport)
looking southeast.

Do you have a better or more recent aerial photo of A Bar A Ranch Airport that you would like to share? If so, please send us your photo.

 
Sectional chart

 
Airport distance calculator
Flying to A Bar A Ranch Airport? Find the distance to fly.

From to WY11

Sunrise and sunset
Times for 19-Aug-2018
 Local
(UTC-6)
 Zulu
(UTC)
Morning civil twilight05:5111:51
Sunrise06:2112:21
Sunset19:5901:59
Evening civil twilight20:2802:28

Current date and time
Zulu (UTC)  19-Aug-2018 08:45:09
Local (UTC-6)  19-Aug-2018 02:45:09
 
METAR
KSAA 
21nm NW 
190835Z AUTO 00000KT 10SM OVC100 06/06 A3031 RMK AO2
K33V 
28nm SE 
190835Z AUTO 13004KT 7SM CLR 04/03 A3036 RMK AO1
KSBS 
41nm S 
190835Z AUTO 00000KT 10SM CLR 09/08 A3029 RMK AO1 T00860075
KLAR 
41nm E 
190753Z AUTO VRB04KT 7SM CLR 06/06 A3029 RMK AO2 SLP182 T00610061
TAF
KLAR 
41nm E 
190523Z 1906/2006 29005KT P6SM VCSH SCT100 FM191200 30009KT P6SM VCSH BKN020 TEMPO 1912/1915 6SM -SHRA OVC010 FM191500 32011KT P6SM -SHRA OVC007 FM191800 34015KT P6SM VCSH OVC020
KRWL 
47nm NW 
190523Z 1906/2006 34008KT P6SM BKN100 FM191000 31011KT P6SM SCT030 BKN070 FM191400 34013G23KT P6SM VCSH SCT020 BKN045
NOTAMs
Click for the latest NOTAMs
NOTAMs are issued by the DoD/FAA and will open in a separate window not controlled by AirNav.

 

 
 

Would you like to see your business listed on this page?

 If your business provides an interesting product or service to pilots, flight crews, aircraft, or users of the A Bar A Ranch Airport, you should consider listing it here.  To start the listing process, click on the button below
 
Add a business
 

Other Pages about A Bar A Ranch Airport

Update a link
 
Copyright © AirNav, LLC. All rights reserved. Privacy Policy  Contact